Location: Newark
(43.6486°N, 79.3853°W)
Time: 09:30:21
(UTC+00:00)

STARLINK-1273 - Pass Details

Date: 08 April 2020
Orbit: 548 x 551 km, 53.0° (Epoch: 25 May)

Event Time Altitude Azimuth Distance (km) Brightness Sun altitude
Exits shadow 09:19:43 - 308° (NW) 2,271 6.5 -15.6°
Reaches altitude 10° 09:20:58 10° 315° (NW) 1,830 6.1 -15.4°
Maximum altitude 09:24:37 29° 16° (NNE) 1,035 5.5 -14.8°
Drops below altitude 10° 09:28:16 10° 78° (ENE) 1,827 7.6 -14.2°
Sets 09:30:44 0° 90° (E) 2,720 8.4 -13.8°
